Location: Joffre
(52.3362°N, 113.5373°W)
Time: 08:41:38
(UTC+00:00)

Envisat - Pass Details

Date: 02 December 2021
Orbit: 764 x 766 km, 98.2° (Epoch: 25 January)

Event Time Altitude Azimuth Distance (km) Brightness Sun altitude
Rises 13:24:30 0° 11° (N) 3,248 6.2 -17.2°
Reaches altitude 10° 13:26:52 10° 7° (N) 2,317 5.4 -16.8°
Maximum altitude 13:31:47 51° 292° (WNW) 961 3.1 -16.1°
Drops below altitude 10° 13:36:41 10° 218° (SW) 2,301 5.3 -15.4°
Sets 13:39:02 0° 213° (SSW) 3,223 6.1 -15.0°
